Simultaneous Nadir Overpasses (SNOs) Predictions

Prediction of SNOs between AQUA and NPP Satellite Orbit:

Table of predicted SNOs for the next 14.0 days since TLE Epoch: 6/11/2022
Index Date (AQUA) Time (AQUA) Lat,Lon (AQUA) SZA (AQUA ) Date (NPP) Time (NPP) Lat,Lon (NPP) SZA (NPP ) Distance(km) Time Diff (sec)
1 06/12/2022 15:00:44 78.16,-157.11 71.68 06/12/2022 15:00:38 78.16,-157.04 71.68 1.41 6
2 06/12/2022 15:50:01 -78.58, 12.66 108.88 06/12/2022 15:51:13 -78.58, 12.64 108.94 0.37 72
3 06/15/2022 06:27:25 -77.86, 149.88 108.04 06/15/2022 06:27:00 -77.86, 149.81 108.01 1.85 25
4 06/15/2022 07:16:34 78.57, -39.01 71.03 06/15/2022 07:17:26 78.58, -38.91 70.96 2.33 52
5 06/17/2022 21:53:56 77.92, 98.53 71.83 06/17/2022 21:53:11 77.93, 98.63 71.84 2.47 45
6 06/17/2022 22:43:12 -78.39, -91.55 108.80 06/17/2022 22:43:45 -78.40, -91.52 108.84 0.73 33
7 06/20/2022 13:20:32 -77.81, 46.43 108.06 06/20/2022 13:19:28 -77.82, 46.54 108.03 2.68 64
8 06/20/2022 14:09:46 78.31,-143.60 71.30 06/20/2022 14:10:00 78.31,-143.57 71.28 0.54 14
9 06/23/2022 05:36:19 -78.28, 164.62 108.63 06/23/2022 05:36:14 -78.28, 164.73 108.65 2.41 5



Historial Predications of SNOs between AQUA and NPP
